This is the latest recevied weather packets stored in our database for station/object N8DMH-13. If no packets are shown the sender has not sent any weather packets the latest 1 day(s).
| Time | Temp. | Humidity | Pressure | Rain* | Wind** | Luminosity | Snow |
|---|---|---|---|---|---|---|---|
| 1778031075 | 9.44° C | 46% | 1008.2 hPa | 0 mm | 0.89 m/s, 248° | - | - |
| 1778030774 | 10° C | 46% | 1008.3 hPa | 0 mm | 0.89 m/s, 225° | - | - |
| 1778030474 | 10° C | 45% | 1008.1 hPa | 0 mm | 1.34 m/s, 225° | - | - |
| 1778030144 | 10° C | 44% | 1008 hPa | 0 mm | 0.89 m/s, 248° | - | - |
| 1778029844 | 10° C | 44% | 1008 hPa | 0 mm | 0.89 m/s, 225° | - | - |
| 1778029544 | 10° C | 44% | 1007.9 hPa | 0 mm | 0.89 m/s, 248° | - | - |
| 1778029214 | 10° C | 43% | 1007.9 hPa | 0 mm | 0.45 m/s, 248° | - | - |
| 1778028914 | 10.56° C | 42% | 1008.1 hPa | 0 mm | 0.89 m/s, 248° | - | - |
| 1778028584 | 10.56° C | 41% | 1007.9 hPa | 0 mm | 1.34 m/s, 225° | - | - |
| 1778028254 | 10.56° C | 41% | 1007.9 hPa | 0 mm | 1.34 m/s, 248° | - | - |
| 1778027954 | 10.56° C | 41% | 1007.9 hPa | 0 mm | 1.34 m/s, 225° | - | - |
| 1778027623 | 10.56° C | 40% | 1007.8 hPa | 0 mm | 1.79 m/s, 225° | - | - |
| 1778027323 | 11.11° C | 39% | 1007.7 hPa | 0 mm | 1.79 m/s, 248° | - | - |
| 1778026993 | 11.11° C | 40% | 1007.7 hPa | 0 mm | 1.34 m/s, 248° | - | - |
| 1778026663 | 11.11° C | 40% | 1007.6 hPa | 0 mm | 1.34 m/s, 248° | - | - |
| 1778026364 | 11.11° C | 39% | 1007.6 hPa | 0 mm | 1.34 m/s, 248° | - | - |
| 1778026063 | 11.11° C | 39% | 1007.5 hPa | 0 mm | 1.34 m/s, 248° | - | - |
| 1778025733 | 11.11° C | 38% | 1007.4 hPa | 0 mm | 2.24 m/s, 248° | - | - |
| 1778025433 | 11.11° C | 39% | 1007.3 hPa | 0 mm | 1.79 m/s, 248° | - | - |
| 1778025132 | 11.11° C | 39% | 1007.3 hPa | 0 mm | 2.24 m/s, 270° | - | - |
| 1778024833 | 11.11° C | 39% | 1007.3 hPa | 0 mm | 1.79 m/s, 248° | - | - |
| 1778024533 | 11.11° C | 38% | 1007.3 hPa | 0 mm | 2.68 m/s, 248° | - | - |
| 1778024202 | 11.67° C | 38% | 1007.2 hPa | 0 mm | 2.24 m/s, 248° | - | - |
| 1778023902 | 11.67° C | 38% | 1007.3 hPa | 0 mm | 2.68 m/s, 248° | - | - |
| 1778023572 | 11.67° C | 37% | 1007.2 hPa | 0 mm | 1.79 m/s, 248° | - | - |
* Rain latest hour (hover to see other rain measurements)
** Current wind speed in m/s (hover to see current wind gust speed)